Location: Beuvrequen
(50.8014°N, 1.6652°E)
Time: 03:01:49
(UTC+00:00)

Cosmos 1328 - Pass Details

Date: 16 October 2021
Orbit: 529 x 551 km, 82.5° (Epoch: 28 November)

Event Time Altitude Azimuth Distance (km) Brightness Sun altitude
Rises 18:15:29 0° 354° (N) 2,727 7.5 -12.9°
Reaches altitude 10° 18:17:44 10° 2° (N) 1,832 6.5 -13.2°
Maximum altitude 18:21:35 43° 74° (ENE) 788 4.1 -13.8°
Enters shadow 18:25:24 10° 147° (SSE) 1,820 6.1 -14.4°
